Wetterdaten: Woche 13.01.14 - 19.01.14 (KW3)
Datum Zeit Temp. I. Temp. A. Feuchte I. Feuchte A. Luftdruck Regen Wind Richtung ET UV Solar Taupunkt Windchill Windben
13.01.2014 00:00 23,3 C -4,7 C 60 % 95 % 1020,7 hPa 0,0 l/m 0,0 km/h (0 Bft) N 0,000 mm 0,0 UV-I 0 W/m -5,4 C -4,7 C 0,0 km/h (0 Bft)
13.01.2014 01:00 23,2 C -5,1 C 60 % 95 % 1020,4 hPa 0,0 l/m 0,2 km/h (0 Bft) NO 0,000 mm 0,0 UV-I 0 W/m -5,7 C -5,1 C 0,6 km/h (0 Bft)
13.01.2014 02:00 23,1 C -5,2 C 61 % 96 % 1020,1 hPa 0,0 l/m 0,3 km/h (0 Bft) NO 0,000 mm 0,0 UV-I 0 W/m -5,7 C -5,2 C 0,7 km/h (0 Bft)
13.01.2014 03:00 23,0 C -5,0 C 61 % 97 % 1019,5 hPa 0,0 l/m 1,1 km/h (0 Bft) NW 0,000 mm 0,0 UV-I 0 W/m -5,5 C -5,0 C 2,1 km/h (1 Bft)
13.01.2014 04:00 22,9 C -4,4 C 61 % 98 % 1019,1 hPa 0,0 l/m 0,3 km/h (0 Bft) NW 0,000 mm 0,0 UV-I 0 W/m -4,7 C -4,4 C 0,9 km/h (0 Bft)
13.01.2014 05:00 22,9 C -4,1 C 61 % 97 % 1018,4 hPa 0,0 l/m 0,0 km/h (0 Bft) N 0,000 mm 0,0 UV-I 0 W/m -4,4 C -4,1 C 0,0 km/h (0 Bft)
13.01.2014 06:00 23,0 C -4,2 C 61 % 97 % 1018,2 hPa 0,0 l/m 0,4 km/h (0 Bft) NW 0,000 mm 0,0 UV-I 0 W/m -4,6 C -4,2 C 1,2 km/h (1 Bft)
13.01.2014 07:00 23,2 C -4,2 C 61 % 97 % 1018,4 hPa 0,0 l/m 0,8 km/h (0 Bft) NW 0,000 mm 0,0 UV-I 0 W/m -4,6 C -4,2 C 1,8 km/h (1 Bft)
13.01.2014 08:00 23,2 C -3,5 C 61 % 98 % 1018,4 hPa 0,0 l/m 1,8 km/h (1 Bft) S-SO 0,000 mm 0,0 UV-I 11 W/m -3,8 C -3,5 C 3,3 km/h (1 Bft)
13.01.2014 09:00 23,3 C -2,0 C 61 % 98 % 1018,0 hPa 0,0 l/m 5,8 km/h (2 Bft) S-SW 0,000 mm 0,0 UV-I 24 W/m -2,3 C -2,5 C 9,7 km/h (2 Bft)
13.01.2014 10:00 23,3 C -1,8 C 61 % 98 % 1017,7 hPa 0,0 l/m 5,6 km/h (1 Bft) S 0,000 mm 0,0 UV-I 39 W/m -2,1 C -2,2 C 8,1 km/h (2 Bft)
13.01.2014 11:00 23,3 C -1,3 C 59 % 99 % 1017,7 hPa 0,0 l/m 2,6 km/h (1 Bft) W-SW 0,000 mm 0,0 UV-I 36 W/m -1,5 C -1,3 C 4,5 km/h (1 Bft)
13.01.2014 12:00 23,4 C -0,9 C 57 % 99 % 1017,4 hPa 0,0 l/m 1,1 km/h (1 Bft) S 0,000 mm 0,0 UV-I 43 W/m -1,0 C -0,9 C 2,2 km/h (1 Bft)
13.01.2014 13:00 23,6 C -0,6 C 57 % 99 % 1016,7 hPa 0,0 l/m 1,5 km/h (1 Bft) S 0,025 mm 0,0 UV-I 37 W/m -0,7 C -0,6 C 3,0 km/h (1 Bft)
13.01.2014 14:00 23,6 C -0,0 C 56 % 99 % 1015,9 hPa 0,0 l/m 1,0 km/h (0 Bft) W-SW 0,000 mm 0,0 UV-I 33 W/m -0,2 C -0,0 C 2,3 km/h (1 Bft)
13.01.2014 15:00 23,5 C 0,2 C 56 % 99 % 1015,8 hPa 0,0 l/m 2,3 km/h (1 Bft) W-SW 0,000 mm 0,0 UV-I 14 W/m 0,1 C 0,2 C 4,1 km/h (1 Bft)
13.01.2014 16:00 23,5 C 0,4 C 56 % 99 % 1015,5 hPa 0,0 l/m 0,7 km/h (0 Bft) W-NW 0,000 mm 0,0 UV-I 5 W/m 0,2 C 0,4 C 1,5 km/h (1 Bft)
13.01.2014 17:00 23,6 C 0,3 C 56 % 99 % 1015,3 hPa 0,0 l/m 1,4 km/h (1 Bft) W-NW 0,000 mm 0,0 UV-I 0 W/m 0,2 C 0,3 C 2,4 km/h (1 Bft)
13.01.2014 18:00 23,6 C 0,2 C 56 % 99 % 1015,1 hPa 0,0 l/m 1,2 km/h (1 Bft) W-NW 0,000 mm 0,0 UV-I 0 W/m 0,1 C 0,2 C 2,4 km/h (1 Bft)
13.01.2014 19:00 23,8 C 0,2 C 56 % 99 % 1014,9 hPa 0,0 l/m 0,5 km/h (0 Bft) W-NW 0,000 mm 0,0 UV-I 0 W/m 0,1 C 0,2 C 1,0 km/h (0 Bft)
13.01.2014 20:00 24,1 C 0,3 C 56 % 99 % 1014,7 hPa 0,2 l/m 0,1 km/h (0 Bft) W-NW 0,000 mm 0,0 UV-I 0 W/m 0,1 C 0,3 C 0,7 km/h (0 Bft)
13.01.2014 21:00 24,3 C 0,4 C 56 % 99 % 1014,3 hPa 0,2 l/m 0,1 km/h (0 Bft) W-NW 0,000 mm 0,0 UV-I 0 W/m 0,2 C 0,4 C 0,5 km/h (0 Bft)
13.01.2014 22:00 23,9 C 0,4 C 56 % 99 % 1013,8 hPa 0,4 l/m 0,7 km/h (0 Bft) W-NW 0,000 mm 0,0 UV-I 0 W/m 0,2 C 0,4 C 1,8 km/h (1 Bft)
13.01.2014 23:00 23,6 C 0,5 C 57 % 99 % 1013,2 hPa 0,0 l/m 0,2 km/h (0 Bft) W-NW 0,000 mm 0,0 UV-I 0 W/m 0,4 C 0,5 C 0,6 km/h (0 Bft)
14.01.2014 00:00 23,4 C 0,6 C 57 % 99 % 1012,6 hPa 0,0 l/m 0,5 km/h (0 Bft) W-NW 0,000 mm 0,0 UV-I 0 W/m 0,5 C 0,6 C 1,2 km/h (1 Bft)
14.01.2014 01:00 23,3 C 0,6 C 57 % 99 % 1011,8 hPa 0,0 l/m 0,0 km/h (0 Bft) W-NW 0,000 mm 0,0 UV-I 0 W/m 0,5 C 0,6 C 0,4 km/h (0 Bft)
14.01.2014 02:00 23,2 C 0,7 C 57 % 99 % 1011,4 hPa 0,0 l/m 0,7 km/h (0 Bft) W-NW 0,000 mm 0,0 UV-I 0 W/m 0,6 C 0,7 C 1,0 km/h (0 Bft)
14.01.2014 03:00 23,1 C 0,6 C 57 % 99 % 1010,9 hPa 0,0 l/m 0,2 km/h (0 Bft) W-NW 0,000 mm 0,0 UV-I 0 W/m 0,5 C 0,6 C 0,7 km/h (0 Bft)
14.01.2014 04:00 23,0 C 0,6 C 57 % 99 % 1010,2 hPa 0,0 l/m 0,5 km/h (0 Bft) W-NW 0,000 mm 0,0 UV-I 0 W/m 0,5 C 0,6 C 1,2 km/h (1 Bft)
14.01.2014 05:00 22,9 C 0,6 C 57 % 99 % 1009,4 hPa 0,0 l/m 0,8 km/h (0 Bft) W-NW 0,000 mm 0,0 UV-I 0 W/m 0,5 C 0,6 C 2,1 km/h (1 Bft)
14.01.2014 06:00 23,0 C 0,7 C 58 % 99 % 1008,9 hPa 0,0 l/m 0,1 km/h (0 Bft) W-NW 0,000 mm 0,0 UV-I 0 W/m 0,6 C 0,7 C 0,4 km/h (0 Bft)
14.01.2014 07:00 23,2 C 0,7 C 58 % 99 % 1008,6 hPa 0,0 l/m 0,1 km/h (0 Bft) W-NW 0,000 mm 0,0 UV-I 0 W/m 0,6 C 0,7 C 0,5 km/h (0 Bft)
14.01.2014 08:00 23,2 C 0,9 C 58 % 99 % 1008,6 hPa 0,0 l/m 0,1 km/h (0 Bft) W-NW 0,000 mm 0,0 UV-I 5 W/m 0,8 C 0,9 C 0,5 km/h (0 Bft)
14.01.2014 09:00 23,3 C 1,4 C 58 % 99 % 1008,5 hPa 0,4 l/m 0,6 km/h (0 Bft) W-NW 0,000 mm 0,0 UV-I 15 W/m 1,3 C 1,4 C 1,8 km/h (1 Bft)
14.01.2014 10:00 23,3 C 1,8 C 58 % 99 % 1008,1 hPa 0,4 l/m 0,9 km/h (0 Bft) W-NW 0,000 mm 0,0 UV-I 40 W/m 1,7 C 1,8 C 2,3 km/h (1 Bft)
14.01.2014 11:00 23,3 C 2,0 C 58 % 99 % 1007,3 hPa 0,2 l/m 1,3 km/h (1 Bft) W-NW 0,025 mm 0,0 UV-I 61 W/m 1,9 C 2,0 C 3,0 km/h (1 Bft)
14.01.2014 12:00 23,6 C 2,1 C 56 % 99 % 1006,5 hPa 0,4 l/m 3,1 km/h (1 Bft) W-NW 0,025 mm 0,0 UV-I 64 W/m 2,0 C 2,1 C 5,6 km/h (1 Bft)
14.01.2014 13:00 23,9 C 2,0 C 56 % 98 % 1006,1 hPa 0,0 l/m 2,6 km/h (1 Bft) W-NW 0,025 mm 0,0 UV-I 27 W/m 1,7 C 2,0 C 4,2 km/h (1 Bft)
14.01.2014 14:00 24,1 C 1,6 C 56 % 98 % 1006,0 hPa 0,6 l/m 2,0 km/h (1 Bft) W-NW 0,000 mm 0,0 UV-I 19 W/m 1,3 C 1,6 C 3,6 km/h (1 Bft)
14.01.2014 15:00 24,1 C 0,8 C 56 % 98 % 1006,3 hPa 0,0 l/m 1,5 km/h (1 Bft) W-NW 0,000 mm 0,0 UV-I 8 W/m 0,5 C 0,8 C 2,9 km/h (1 Bft)
14.01.2014 16:00 24,2 C 0,5 C 56 % 98 % 1006,6 hPa 0,0 l/m 0,1 km/h (0 Bft) W-NW 0,000 mm 0,0 UV-I 0 W/m 0,2 C 0,5 C 0,2 km/h (0 Bft)
14.01.2014 17:00 24,2 C 0,4 C 56 % 98 % 1006,8 hPa 0,0 l/m 0,0 km/h (0 Bft) N 0,000 mm 0,0 UV-I 0 W/m 0,1 C 0,4 C 0,0 km/h (0 Bft)
14.01.2014 18:00 24,0 C 0,4 C 56 % 98 % 1007,3 hPa 0,0 l/m 0,0 km/h (0 Bft) N 0,000 mm 0,0 UV-I 0 W/m 0,1 C 0,4 C 0,0 km/h (0 Bft)
14.01.2014 19:00 24,0 C 0,4 C 56 % 99 % 1007,8 hPa 0,0 l/m 0,0 km/h (0 Bft) N 0,000 mm 0,0 UV-I 0 W/m 0,2 C 0,4 C 0,0 km/h (0 Bft)
14.01.2014 20:00 24,3 C 0,3 C 58 % 99 % 1008,2 hPa 0,0 l/m 0,0 km/h (0 Bft) N 0,000 mm 0,0 UV-I 0 W/m 0,2 C 0,3 C 0,0 km/h (0 Bft)
14.01.2014 21:00 24,4 C 0,3 C 58 % 99 % 1008,5 hPa 0,0 l/m 0,0 km/h (0 Bft) N 0,000 mm 0,0 UV-I 0 W/m 0,2 C 0,3 C 0,0 km/h (0 Bft)
14.01.2014 22:00 24,2 C 0,3 C 58 % 99 % 1008,8 hPa 0,0 l/m 0,0 km/h (0 Bft) N 0,000 mm 0,0 UV-I 0 W/m 0,2 C 0,3 C 0,0 km/h (0 Bft)
14.01.2014 23:00 23,8 C 0,4 C 58 % 99 % 1009,3 hPa 0,0 l/m 0,0 km/h (0 Bft) N 0,000 mm 0,0 UV-I 0 W/m 0,2 C 0,4 C 0,0 km/h (0 Bft)
15.01.2014 00:00 23,6 C 0,4 C 58 % 99 % 1009,5 hPa 0,0 l/m 0,0 km/h (0 Bft) N 0,000 mm 0,0 UV-I 0 W/m 0,3 C 0,4 C 0,0 km/h (0 Bft)
15.01.2014 01:00 23,4 C 0,7 C 58 % 99 % 1009,9 hPa 0,0 l/m 0,3 km/h (0 Bft) W-NW 0,000 mm 0,0 UV-I 0 W/m 0,5 C 0,7 C 0,7 km/h (0 Bft)
15.01.2014 02:00 23,3 C 0,7 C 58 % 99 % 1010,5 hPa 0,2 l/m 4,1 km/h (1 Bft) W-NW 0,000 mm 0,0 UV-I 0 W/m 0,6 C 0,6 C 7,0 km/h (2 Bft)
15.01.2014 03:00 23,2 C 0,8 C 58 % 99 % 1011,1 hPa 0,2 l/m 3,2 km/h (1 Bft) W-SW 0,000 mm 0,0 UV-I 0 W/m 0,7 C 0,8 C 5,4 km/h (1 Bft)
15.01.2014 04:00 23,2 C 0,8 C 58 % 99 % 1011,4 hPa 0,2 l/m 3,5 km/h (1 Bft) W-SW 0,000 mm 0,0 UV-I 0 W/m 0,7 C 0,8 C 6,3 km/h (2 Bft)
15.01.2014 05:00 23,1 C 0,9 C 58 % 99 % 1011,8 hPa 0,0 l/m 5,1 km/h (1 Bft) W-SW 0,000 mm 0,0 UV-I 0 W/m 0,8 C 0,8 C 8,2 km/h (2 Bft)
15.01.2014 06:00 23,2 C 1,1 C 58 % 99 % 1012,0 hPa 0,2 l/m 4,9 km/h (1 Bft) W 0,000 mm 0,0 UV-I 0 W/m 0,9 C 1,0 C 8,0 km/h (2 Bft)
15.01.2014 07:00 23,3 C 1,2 C 58 % 99 % 1012,2 hPa 0,2 l/m 5,3 km/h (1 Bft) W-SW 0,000 mm 0,0 UV-I 0 W/m 1,0 C 1,1 C 8,2 km/h (2 Bft)
15.01.2014 08:00 23,3 C 1,0 C 58 % 98 % 1012,7 hPa 0,2 l/m 3,5 km/h (1 Bft) S 0,000 mm 0,0 UV-I 11 W/m 0,7 C 1,0 C 6,0 km/h (2 Bft)
15.01.2014 09:00 23,4 C 1,2 C 58 % 98 % 1013,0 hPa 0,4 l/m 4,6 km/h (1 Bft) SW 0,000 mm 0,0 UV-I 31 W/m 1,0 C 1,1 C 7,3 km/h (2 Bft)
15.01.2014 10:00 23,4 C 1,4 C 58 % 97 % 1013,3 hPa 0,6 l/m 5,3 km/h (1 Bft) SW 0,000 mm 0,0 UV-I 46 W/m 1,0 C 1,2 C 8,2 km/h (2 Bft)
15.01.2014 11:00 23,4 C 1,4 C 58 % 97 % 1013,4 hPa 0,6 l/m 4,7 km/h (1 Bft) SW 0,025 mm 0,0 UV-I 43 W/m 1,0 C 1,3 C 7,7 km/h (2 Bft)
15.01.2014 12:00 23,5 C 1,5 C 57 % 96 % 1013,1 hPa 0,4 l/m 4,7 km/h (1 Bft) SW 0,025 mm 0,0 UV-I 70 W/m 0,9 C 1,5 C 7,5 km/h (2 Bft)
15.01.2014 13:00 23,9 C 1,4 C 57 % 96 % 1012,7 hPa 0,0 l/m 4,3 km/h (1 Bft) S-SW 0,025 mm 0,0 UV-I 48 W/m 0,9 C 1,3 C 6,7 km/h (2 Bft)
15.01.2014 14:00 24,0 C 1,7 C 57 % 95 % 1012,6 hPa 1,0 l/m 4,7 km/h (1 Bft) S 0,025 mm 0,0 UV-I 64 W/m 1,0 C 1,6 C 7,7 km/h (2 Bft)
15.01.2014 15:00 24,3 C 1,5 C 59 % 95 % 1013,0 hPa 0,2 l/m 5,0 km/h (1 Bft) S 0,025 mm 0,0 UV-I 26 W/m 0,7 C 1,2 C 7,4 km/h (2 Bft)
15.01.2014 16:00 24,3 C 1,2 C 59 % 96 % 1013,2 hPa 0,0 l/m 4,1 km/h (1 Bft) S-SO 0,000 mm 0,0 UV-I 8 W/m 0,6 C 1,1 C 6,0 km/h (2 Bft)
15.01.2014 17:00 24,2 C 1,1 C 59 % 94 % 1013,0 hPa 0,2 l/m 2,8 km/h (1 Bft) S-SO 0,000 mm 0,0 UV-I 0 W/m 0,2 C 1,1 C 4,2 km/h (1 Bft)
15.01.2014 18:00 24,2 C 0,5 C 59 % 94 % 1012,9 hPa 0,0 l/m 1,1 km/h (1 Bft) SO 0,000 mm 0,0 UV-I 0 W/m -0,4 C 0,5 C 2,4 km/h (1 Bft)
15.01.2014 19:00 24,1 C -0,2 C 59 % 96 % 1012,9 hPa 0,0 l/m 3,1 km/h (1 Bft) SO 0,002 mm 0,0 UV-I 0 W/m -0,8 C -0,2 C 4,9 km/h (1 Bft)
15.01.2014 20:00 24,2 C -0,1 C 59 % 95 % 1012,5 hPa 0,0 l/m 3,0 km/h (1 Bft) O-SO 0,000 mm 0,0 UV-I 0 W/m -0,8 C -0,1 C 4,6 km/h (1 Bft)
15.01.2014 21:00 24,2 C -0,2 C 59 % 96 % 1012,3 hPa 0,0 l/m 3,5 km/h (1 Bft) O-SO 0,000 mm 0,0 UV-I 0 W/m -0,8 C -0,2 C 5,1 km/h (1 Bft)
15.01.2014 22:00 24,1 C -0,5 C 59 % 96 % 1012,0 hPa 0,0 l/m 1,7 km/h (1 Bft) O-SO 0,000 mm 0,0 UV-I 0 W/m -1,0 C -0,5 C 2,9 km/h (1 Bft)
15.01.2014 23:00 23,8 C -0,3 C 59 % 96 % 1011,4 hPa 0,0 l/m 3,4 km/h (1 Bft) O-SO 0,000 mm 0,0 UV-I 0 W/m -0,8 C -0,3 C 5,4 km/h (1 Bft)
16.01.2014 00:00 23,6 C -0,2 C 59 % 96 % 1011,0 hPa 0,0 l/m 0,1 km/h (0 Bft) SO 0,000 mm 0,0 UV-I 0 W/m -0,8 C -0,2 C 0,1 km/h (0 Bft)
16.01.2014 01:00 23,5 C -0,2 C 59 % 97 % 1010,8 hPa 0,0 l/m 2,6 km/h (1 Bft) S 0,000 mm 0,0 UV-I 0 W/m -0,7 C -0,2 C 4,5 km/h (1 Bft)
16.01.2014 02:00 23,4 C 0,7 C 59 % 96 % 1010,7 hPa 0,0 l/m 4,3 km/h (1 Bft) S-SO 0,000 mm 0,0 UV-I 0 W/m 0,1 C 0,7 C 6,4 km/h (2 Bft)
16.01.2014 03:00 23,3 C 1,0 C 59 % 96 % 1010,6 hPa 0,0 l/m 5,9 km/h (2 Bft) S 0,000 mm 0,0 UV-I 0 W/m 0,4 C 0,6 C 8,7 km/h (2 Bft)
16.01.2014 04:00 23,2 C 1,1 C 59 % 95 % 1010,2 hPa 0,0 l/m 4,6 km/h (1 Bft) S 0,000 mm 0,0 UV-I 0 W/m 0,4 C 1,0 C 6,8 km/h (2 Bft)
16.01.2014 05:00 23,2 C 1,0 C 59 % 96 % 1009,6 hPa 0,0 l/m 4,0 km/h (1 Bft) S 0,000 mm 0,0 UV-I 0 W/m 0,4 C 1,0 C 6,1 km/h (2 Bft)
16.01.2014 06:00 23,3 C 1,2 C 60 % 95 % 1009,5 hPa 0,0 l/m 2,5 km/h (1 Bft) S 0,000 mm 0,0 UV-I 0 W/m 0,5 C 1,2 C 4,3 km/h (1 Bft)
16.01.2014 07:00 23,5 C 1,3 C 60 % 96 % 1009,4 hPa 0,0 l/m 1,4 km/h (1 Bft) S 0,000 mm 0,0 UV-I 0 W/m 0,7 C 1,3 C 2,9 km/h (1 Bft)
16.01.2014 08:00 23,6 C 1,3 C 60 % 96 % 1009,3 hPa 0,0 l/m 0,1 km/h (0 Bft) SW 0,000 mm 0,0 UV-I 14 W/m 0,8 C 1,3 C 0,4 km/h (0 Bft)
16.01.2014 09:00 23,6 C 1,4 C 59 % 97 % 1009,4 hPa 0,2 l/m 0,9 km/h (0 Bft) W-NW 0,000 mm 0,0 UV-I 50 W/m 0,9 C 1,4 C 2,1 km/h (1 Bft)
16.01.2014 10:00 23,6 C 1,8 C 59 % 96 % 1009,3 hPa 0,2 l/m 0,6 km/h (0 Bft) W-NW 0,025 mm 0,0 UV-I 82 W/m 1,3 C 1,8 C 1,7 km/h (1 Bft)
16.01.2014 11:00 23,6 C 2,6 C 59 % 94 % 1008,7 hPa 0,2 l/m 1,1 km/h (1 Bft) W-NW 0,025 mm 0,0 UV-I 142 W/m 1,7 C 2,6 C 2,7 km/h (1 Bft)
16.01.2014 12:00 23,7 C 3,8 C 60 % 89 % 1008,1 hPa 0,0 l/m 1,4 km/h (1 Bft) S-SW 0,051 mm 0,0 UV-I 134 W/m 2,1 C 3,7 C 3,1 km/h (1 Bft)
16.01.2014 13:00 24,2 C 3,8 C 60 % 88 % 1007,6 hPa 0,0 l/m 3,3 km/h (1 Bft) S-SO 0,051 mm 0,0 UV-I 91 W/m 1,9 C 3,8 C 5,3 km/h (1 Bft)
16.01.2014 14:00 24,3 C 3,7 C 60 % 89 % 1007,3 hPa 0,2 l/m 1,6 km/h (1 Bft) S 0,051 mm 0,0 UV-I 57 W/m 2,0 C 3,7 C 2,9 km/h (1 Bft)
16.01.2014 15:00 24,3 C 3,6 C 59 % 90 % 1007,0 hPa 0,0 l/m 0,7 km/h (0 Bft) O-NO 0,025 mm 0,0 UV-I 32 W/m 2,1 C 3,6 C 1,8 km/h (1 Bft)
16.01.2014 16:00 24,0 C 3,3 C 59 % 92 % 1006,5 hPa 0,0 l/m 0,5 km/h (0 Bft) O-NO 0,025 mm 0,0 UV-I 10 W/m 2,1 C 3,3 C 1,1 km/h (0 Bft)
16.01.2014 17:00 23,9 C 2,6 C 59 % 93 % 1005,9 hPa 0,0 l/m 0,1 km/h (0 Bft) N-NO 0,000 mm 0,0 UV-I 0 W/m 1,7 C 2,6 C 0,5 km/h (0 Bft)
16.01.2014 18:00 24,2 C 1,9 C 59 % 95 % 1005,3 hPa 0,0 l/m 0,8 km/h (0 Bft) O-NO 0,000 mm 0,0 UV-I 0 W/m 1,3 C 1,9 C 2,1 km/h (1 Bft)
16.01.2014 19:00 24,1 C 1,5 C 59 % 96 % 1005,0 hPa 0,0 l/m 1,0 km/h (0 Bft) N 0,000 mm 0,0 UV-I 0 W/m 0,9 C 1,5 C 1,9 km/h (1 Bft)
16.01.2014 20:00 24,3 C 1,3 C 58 % 97 % 1005,6 hPa 0,0 l/m 0,8 km/h (0 Bft) N 0,000 mm 0,0 UV-I 0 W/m 0,9 C 1,3 C 1,7 km/h (1 Bft)
16.01.2014 21:00 24,4 C 1,2 C 58 % 97 % 1006,5 hPa 0,0 l/m 1,0 km/h (0 Bft) O 0,000 mm 0,0 UV-I 0 W/m 0,7 C 1,2 C 2,0 km/h (1 Bft)
16.01.2014 22:00 24,3 C 1,2 C 58 % 97 % 1006,2 hPa 0,0 l/m 2,1 km/h (1 Bft) O 0,000 mm 0,0 UV-I 0 W/m 0,8 C 1,2 C 3,6 km/h (1 Bft)
16.01.2014 23:00 24,0 C 1,3 C 59 % 97 % 1006,1 hPa 0,0 l/m 1,7 km/h (1 Bft) O 0,000 mm 0,0 UV-I 0 W/m 0,9 C 1,3 C 3,1 km/h (1 Bft)
17.01.2014 00:00 23,8 C 1,3 C 59 % 97 % 1006,4 hPa 0,0 l/m 1,0 km/h (0 Bft) W-NW 0,000 mm 0,0 UV-I 0 W/m 0,9 C 1,3 C 1,8 km/h (1 Bft)
17.01.2014 01:00 23,7 C 1,0 C 59 % 97 % 1006,6 hPa 0,0 l/m 0,4 km/h (0 Bft) W-NW 0,000 mm 0,0 UV-I 0 W/m 0,6 C 1,0 C 0,7 km/h (0 Bft)
17.01.2014 02:00 23,6 C 0,7 C 59 % 98 % 1006,3 hPa 0,0 l/m 1,5 km/h (1 Bft) N-NW 0,000 mm 0,0 UV-I 0 W/m 0,4 C 0,7 C 2,8 km/h (1 Bft)
17.01.2014 03:00 23,4 C 0,7 C 59 % 98 % 1006,3 hPa 0,0 l/m 4,4 km/h (1 Bft) N-NW 0,000 mm 0,0 UV-I 0 W/m 0,5 C 0,3 C 6,7 km/h (2 Bft)
17.01.2014 04:00 23,4 C 1,0 C 60 % 98 % 1006,8 hPa 0,0 l/m 2,9 km/h (1 Bft) N-NW 0,000 mm 0,0 UV-I 0 W/m 0,8 C 1,0 C 4,8 km/h (1 Bft)
17.01.2014 05:00 23,3 C 1,1 C 60 % 97 % 1006,3 hPa 0,0 l/m 1,2 km/h (1 Bft) N-NW 0,000 mm 0,0 UV-I 0 W/m 0,7 C 1,1 C 2,4 km/h (1 Bft)
17.01.2014 06:00 23,3 C 0,7 C 60 % 97 % 1006,2 hPa 0,0 l/m 0,8 km/h (0 Bft) N-NW 0,000 mm 0,0 UV-I 0 W/m 0,3 C 0,7 C 1,4 km/h (1 Bft)
17.01.2014 07:00 23,3 C 0,9 C 60 % 98 % 1006,5 hPa 0,0 l/m 1,8 km/h (1 Bft) N-NW 0,000 mm 0,0 UV-I 0 W/m 0,7 C 0,9 C 3,4 km/h (1 Bft)
17.01.2014 08:00 23,3 C 1,1 C 60 % 98 % 1006,9 hPa 0,0 l/m 0,3 km/h (0 Bft) N-NW 0,000 mm 0,0 UV-I 14 W/m 0,8 C 1,1 C 1,1 km/h (0 Bft)
17.01.2014 09:00 23,3 C 1,1 C 60 % 98 % 1007,1 hPa 0,0 l/m 0,7 km/h (0 Bft) N-NW 0,000 mm 0,0 UV-I 44 W/m 0,9 C 1,1 C 1,5 km/h (1 Bft)
17.01.2014 10:00 23,2 C 1,8 C 60 % 99 % 1007,2 hPa 0,0 l/m 0,4 km/h (0 Bft) N-NW 0,025 mm 0,0 UV-I 70 W/m 1,6 C 1,8 C 1,1 km/h (1 Bft)
17.01.2014 11:00 23,3 C 3,2 C 60 % 98 % 1006,9 hPa 0,0 l/m 0,6 km/h (0 Bft) N-NW 0,025 mm 0,0 UV-I 82 W/m 2,9 C 3,2 C 1,9 km/h (1 Bft)
17.01.2014 12:00 23,7 C 3,9 C 59 % 95 % 1006,5 hPa 0,0 l/m 1,8 km/h (1 Bft) N-NW 0,025 mm 0,0 UV-I 85 W/m 3,2 C 3,9 C 3,4 km/h (1 Bft)
17.01.2014 13:00 23,8 C 4,2 C 59 % 94 % 1006,1 hPa 0,0 l/m 1,8 km/h (1 Bft) N-NW 0,025 mm 0,0 UV-I 66 W/m 3,3 C 4,2 C 3,4 km/h (1 Bft)
17.01.2014 14:00 23,9 C 4,4 C 59 % 94 % 1006,0 hPa 0,0 l/m 2,8 km/h (1 Bft) N-NW 0,025 mm 0,0 UV-I 62 W/m 3,4 C 4,4 C 4,6 km/h (1 Bft)
17.01.2014 15:00 24,0 C 4,4 C 59 % 93 % 1006,4 hPa 0,0 l/m 4,0 km/h (1 Bft) N-NW 0,025 mm 0,0 UV-I 36 W/m 3,4 C 4,3 C 6,0 km/h (2 Bft)
17.01.2014 16:00 23,9 C 4,1 C 59 % 95 % 1006,6 hPa 0,0 l/m 1,5 km/h (1 Bft) N-NW 0,025 mm 0,0 UV-I 18 W/m 3,4 C 4,1 C 2,9 km/h (1 Bft)
17.01.2014 17:00 23,8 C 3,8 C 60 % 95 % 1006,8 hPa 0,0 l/m 0,7 km/h (0 Bft) N-NW 0,000 mm 0,0 UV-I 0 W/m 3,1 C 3,8 C 1,8 km/h (1 Bft)
17.01.2014 18:00 23,7 C 3,7 C 60 % 96 % 1007,3 hPa 0,0 l/m 0,1 km/h (0 Bft) N-NW 0,000 mm 0,0 UV-I 0 W/m 3,1 C 3,7 C 0,6 km/h (0 Bft)
17.01.2014 19:00 23,9 C 3,3 C 59 % 96 % 1007,9 hPa 0,0 l/m 2,0 km/h (1 Bft) N-NW 0,000 mm 0,0 UV-I 0 W/m 2,7 C 3,3 C 3,5 km/h (1 Bft)
17.01.2014 20:00 24,0 C 3,0 C 59 % 97 % 1008,3 hPa 0,0 l/m 2,1 km/h (1 Bft) N-NW 0,000 mm 0,0 UV-I 0 W/m 2,6 C 3,0 C 3,7 km/h (1 Bft)
17.01.2014 21:00 24,2 C 3,2 C 58 % 97 % 1008,4 hPa 0,0 l/m 7,8 km/h (2 Bft) N-NW 0,000 mm 0,0 UV-I 0 W/m 2,8 C 1,7 C 11,6 km/h (2 Bft)
17.01.2014 22:00 24,2 C 3,2 C 59 % 97 % 1008,5 hPa 0,0 l/m 4,8 km/h (1 Bft) S 0,000 mm 0,0 UV-I 0 W/m 2,8 C 2,9 C 7,4 km/h (2 Bft)
17.01.2014 23:00 24,1 C 3,2 C 59 % 97 % 1008,5 hPa 0,0 l/m 1,1 km/h (0 Bft) S-SO 0,000 mm 0,0 UV-I 0 W/m 2,8 C 3,2 C 2,6 km/h (1 Bft)
18.01.2014 00:00 23,7 C 3,2 C 59 % 96 % 1008,6 hPa 0,0 l/m 1,0 km/h (0 Bft) O 0,000 mm 0,0 UV-I 0 W/m 2,7 C 3,2 C 2,3 km/h (1 Bft)
18.01.2014 01:00 23,6 C 3,0 C 59 % 96 % 1008,5 hPa 0,0 l/m 2,0 km/h (1 Bft) SO 0,000 mm 0,0 UV-I 0 W/m 2,4 C 3,0 C 3,8 km/h (1 Bft)
18.01.2014 02:00 23,4 C 3,0 C 59 % 96 % 1008,6 hPa 0,0 l/m 2,2 km/h (1 Bft) SO 0,000 mm 0,0 UV-I 0 W/m 2,4 C 3,0 C 4,0 km/h (1 Bft)
18.01.2014 03:00 23,3 C 2,8 C 59 % 95 % 1008,6 hPa 0,0 l/m 1,9 km/h (1 Bft) O 0,000 mm 0,0 UV-I 0 W/m 2,1 C 2,8 C 4,3 km/h (1 Bft)
18.01.2014 04:00 23,3 C 1,7 C 60 % 96 % 1008,5 hPa 0,0 l/m 1,5 km/h (1 Bft) O 0,000 mm 0,0 UV-I 0 W/m 1,1 C 1,7 C 3,2 km/h (1 Bft)
18.01.2014 05:00 23,2 C 0,8 C 60 % 97 % 1008,3 hPa 0,0 l/m 2,9 km/h (1 Bft) O 0,000 mm 0,0 UV-I 0 W/m 0,3 C 0,8 C 5,2 km/h (1 Bft)
18.01.2014 06:00 23,2 C 0,8 C 60 % 98 % 1008,0 hPa 0,0 l/m 4,6 km/h (1 Bft) O 0,000 mm 0,0 UV-I 0 W/m 0,6 C 0,7 C 8,1 km/h (2 Bft)
18.01.2014 07:00 23,1 C 0,7 C 60 % 99 % 1008,0 hPa 0,0 l/m 2,4 km/h (1 Bft) O 0,000 mm 0,0 UV-I 0 W/m 0,5 C 0,6 C 5,1 km/h (1 Bft)
18.01.2014 08:00 23,1 C 0,7 C 60 % 99 % 1008,1 hPa 0,0 l/m 5,3 km/h (1 Bft) O 0,000 mm 0,0 UV-I 21 W/m 0,5 C 0,3 C 10,2 km/h (2 Bft)
18.01.2014 09:00 23,1 C 1,3 C 60 % 98 % 1008,1 hPa 0,0 l/m 6,4 km/h (2 Bft) O 0,000 mm 0,0 UV-I 102 W/m 1,0 C 0,4 C 11,4 km/h (2 Bft)
18.01.2014 10:00 23,4 C 2,4 C 61 % 95 % 1007,9 hPa 0,2 l/m 6,6 km/h (2 Bft) O 0,025 mm 0,0 UV-I 180 W/m 1,6 C 1,3 C 12,1 km/h (2 Bft)
18.01.2014 11:00 23,4 C 3,1 C 60 % 93 % 1007,6 hPa 0,0 l/m 4,8 km/h (1 Bft) O-SO 0,076 mm 0,0 UV-I 187 W/m 2,0 C 2,8 C 9,6 km/h (2 Bft)
18.01.2014 12:00 23,3 C 3,3 C 60 % 93 % 1006,8 hPa 0,0 l/m 6,6 km/h (2 Bft) O 0,076 mm 0,0 UV-I 166 W/m 2,3 C 2,2 C 11,7 km/h (2 Bft)
18.01.2014 13:00 23,4 C 3,3 C 59 % 94 % 1006,2 hPa 0,0 l/m 8,4 km/h (2 Bft) O 0,076 mm 0,0 UV-I 118 W/m 2,4 C 1,4 C 15,8 km/h (3 Bft)
18.01.2014 14:00 23,6 C 3,3 C 59 % 94 % 1005,6 hPa 0,0 l/m 7,4 km/h (2 Bft) O 0,051 mm 0,0 UV-I 63 W/m 2,5 C 1,8 C 12,6 km/h (3 Bft)
18.01.2014 15:00 23,5 C 3,5 C 59 % 94 % 1005,4 hPa 0,0 l/m 7,3 km/h (2 Bft) O 0,025 mm 0,0 UV-I 45 W/m 2,6 C 2,2 C 13,6 km/h (3 Bft)
18.01.2014 16:00 23,4 C 3,4 C 58 % 95 % 1005,4 hPa 0,0 l/m 6,7 km/h (2 Bft) O 0,025 mm 0,0 UV-I 11 W/m 2,6 C 2,3 C 12,2 km/h (2 Bft)
18.01.2014 17:00 23,3 C 4,2 C 58 % 94 % 1005,5 hPa 0,0 l/m 7,3 km/h (2 Bft) O-NO 0,000 mm 0,0 UV-I 0 W/m 3,3 C 2,9 C 12,7 km/h (3 Bft)
18.01.2014 18:00 23,4 C 3,0 C 58 % 91 % 1005,4 hPa 0,0 l/m 7,7 km/h (2 Bft) O 0,002 mm 0,0 UV-I 0 W/m 1,8 C 1,4 C 14,0 km/h (3 Bft)
18.01.2014 19:00 23,6 C 2,7 C 58 % 92 % 1005,3 hPa 0,0 l/m 8,2 km/h (2 Bft) O 0,000 mm 0,0 UV-I 0 W/m 1,5 C 0,6 C 14,5 km/h (3 Bft)
18.01.2014 20:00 23,9 C 2,3 C 60 % 91 % 1005,2 hPa 0,0 l/m 7,8 km/h (2 Bft) O 0,000 mm 0,0 UV-I 0 W/m 1,0 C 0,6 C 14,8 km/h (3 Bft)
18.01.2014 21:00 24,1 C 2,1 C 60 % 91 % 1005,3 hPa 0,0 l/m 8,7 km/h (2 Bft) O 0,000 mm 0,0 UV-I 0 W/m 0,8 C -0,3 C 16,2 km/h (3 Bft)
18.01.2014 22:00 24,2 C 2,1 C 60 % 91 % 1004,9 hPa 0,0 l/m 8,3 km/h (2 Bft) O 0,000 mm 0,0 UV-I 0 W/m 0,8 C 0,0 C 15,7 km/h (3 Bft)
18.01.2014 23:00 24,3 C 2,1 C 60 % 91 % 1004,6 hPa 0,0 l/m 10,3 km/h (2 Bft) O 0,000 mm 0,0 UV-I 0 W/m 0,9 C -1,2 C 17,8 km/h (3 Bft)
19.01.2014 00:00 23,9 C 2,2 C 60 % 92 % 1004,1 hPa 0,0 l/m 9,2 km/h (2 Bft) O 0,000 mm 0,0 UV-I 0 W/m 1,0 C -0,4 C 16,6 km/h (3 Bft)
19.01.2014 01:00 23,6 C 2,4 C 60 % 92 % 1003,6 hPa 0,0 l/m 8,8 km/h (2 Bft) O 0,000 mm 0,0 UV-I 0 W/m 1,3 C 0,1 C 15,3 km/h (3 Bft)
19.01.2014 02:00 23,4 C 2,7 C 61 % 92 % 1003,2 hPa 0,0 l/m 9,2 km/h (2 Bft) O 0,000 mm 0,0 UV-I 0 W/m 1,5 C 0,0 C 16,2 km/h (3 Bft)
19.01.2014 03:00 23,3 C 2,8 C 61 % 92 % 1002,9 hPa 0,0 l/m 8,3 km/h (2 Bft) O 0,000 mm 0,0 UV-I 0 W/m 1,7 C 0,9 C 14,8 km/h (3 Bft)
19.01.2014 04:00 23,3 C 2,9 C 61 % 96 % 1002,5 hPa 0,0 l/m 9,7 km/h (2 Bft) O 0,000 mm 0,0 UV-I 0 W/m 2,2 C -0,0 C 16,7 km/h (3 Bft)
19.01.2014 05:00 23,2 C 3,0 C 61 % 96 % 1002,1 hPa 0,0 l/m 10,0 km/h (2 Bft) O 0,000 mm 0,0 UV-I 0 W/m 2,4 C -0,0 C 16,4 km/h (3 Bft)
19.01.2014 06:00 23,1 C 3,1 C 61 % 96 % 1001,9 hPa 0,0 l/m 10,3 km/h (2 Bft) O 0,000 mm 0,0 UV-I 0 W/m 2,5 C -0,0 C 17,0 km/h (3 Bft)
19.01.2014 07:00 23,2 C 3,3 C 62 % 92 % 1001,9 hPa 0,0 l/m 9,1 km/h (2 Bft) O 0,000 mm 0,0 UV-I 0 W/m 2,2 C 0,9 C 16,1 km/h (3 Bft)
19.01.2014 08:00 23,4 C 3,3 C 61 % 92 % 1002,1 hPa 0,0 l/m 8,1 km/h (2 Bft) O 0,000 mm 0,0 UV-I 19 W/m 2,2 C 1,6 C 14,8 km/h (3 Bft)
19.01.2014 09:00 23,4 C 3,9 C 61 % 92 % 1002,4 hPa 0,0 l/m 9,1 km/h (2 Bft) O 0,000 mm 0,0 UV-I 78 W/m 2,6 C 1,6 C 15,2 km/h (3 Bft)
19.01.2014 10:00 23,8 C 4,9 C 61 % 89 % 1002,4 hPa 0,0 l/m 9,6 km/h (2 Bft) O 0,025 mm 0,0 UV-I 135 W/m 3,2 C 2,3 C 16,6 km/h (3 Bft)
19.01.2014 11:00 23,8 C 4,9 C 61 % 89 % 1002,0 hPa 0,0 l/m 10,0 km/h (2 Bft) O-NO 0,051 mm 0,0 UV-I 162 W/m 3,3 C 2,1 C 17,0 km/h (3 Bft)
19.01.2014 12:00 23,7 C 5,6 C 61 % 87 % 1001,6 hPa 0,0 l/m 10,8 km/h (2 Bft) O 0,076 mm 0,0 UV-I 176 W/m 3,6 C 2,3 C 18,2 km/h (3 Bft)
19.01.2014 13:00 23,8 C 5,3 C 61 % 88 % 1001,5 hPa 0,0 l/m 7,5 km/h (2 Bft) O 0,076 mm 0,0 UV-I 138 W/m 3,4 C 3,7 C 13,4 km/h (3 Bft)
19.01.2014 14:00 23,9 C 5,0 C 60 % 89 % 1001,5 hPa 0,0 l/m 5,4 km/h (1 Bft) O-NO 0,051 mm 0,0 UV-I 101 W/m 3,4 C 4,5 C 10,2 km/h (2 Bft)
19.01.2014 15:00 23,8 C 5,0 C 58 % 90 % 1001,7 hPa 0,0 l/m 5,8 km/h (2 Bft) O 0,051 mm 0,0 UV-I 38 W/m 3,4 C 4,2 C 11,1 km/h (2 Bft)
19.01.2014 16:00 23,9 C 4,8 C 58 % 91 % 1001,8 hPa 0,0 l/m 5,5 km/h (1 Bft) O 0,025 mm 0,0 UV-I 8 W/m 3,4 C 4,1 C 10,4 km/h (2 Bft)
19.01.2014 17:00 24,1 C 4,7 C 58 % 92 % 1001,6 hPa 0,0 l/m 7,2 km/h (2 Bft) O 0,000 mm 0,0 UV-I 0 W/m 3,5 C 3,2 C 12,7 km/h (3 Bft)
19.01.2014 18:00 24,2 C 4,8 C 58 % 92 % 1001,5 hPa 0,0 l/m 6,9 km/h (2 Bft) O-NO 0,001 mm 0,0 UV-I 0 W/m 3,6 C 3,8 C 12,6 km/h (3 Bft)
19.01.2014 19:00 24,0 C 5,1 C 59 % 92 % 1001,4 hPa 0,0 l/m 7,0 km/h (2 Bft) O 0,000 mm 0,0 UV-I 0 W/m 3,8 C 4,0 C 12,8 km/h (3 Bft)
19.01.2014 20:00 24,2 C 5,3 C 59 % 91 % 1001,2 hPa 0,0 l/m 5,9 km/h (2 Bft) O-NO 0,000 mm 0,0 UV-I 0 W/m 3,9 C 4,6 C 11,2 km/h (2 Bft)
19.01.2014 21:00 24,2 C 5,5 C 59 % 91 % 1001,0 hPa 0,0 l/m 7,5 km/h (2 Bft) O 0,000 mm 0,0 UV-I 0 W/m 4,2 C 4,0 C 13,1 km/h (3 Bft)
19.01.2014 22:00 24,4 C 5,9 C 59 % 91 % 1000,9 hPa 0,0 l/m 4,7 km/h (1 Bft) O-NO 0,000 mm 0,0 UV-I 0 W/m 4,5 C 5,7 C 9,0 km/h (2 Bft)
19.01.2014 23:00 24,5 C 6,2 C 59 % 91 % 1000,6 hPa 0,0 l/m 7,0 km/h (2 Bft) O-NO 0,000 mm 0,0 UV-I 0 W/m 4,8 C 5,2 C 11,7 km/h (2 Bft)
Min-Datum _ 13.01.14 13.01.14 14.01.14 19.01.14 19.01.14 - 13.01.14 - - - - 13.01.14 13.01.14 13.01.14
_ Min-Zeit 05:22 02:09 12:30 12:08 23:57 - 00:00 - - - - 02:05 10:02 00:00
Minimum _ 22,8 C -5,5 C 55 % 86 % 1000,3 hPa - 0,0 km/h (0 Bft) - - - - -6,2 C -6,6 C 0,0 km/h (0 Bft)
Max-Datum _ 19.01.14 18.01.14 19.01.14 14.01.14 13.01.14 15.01.14 18.01.14 - 18.01.14 13.01.14 19.01.14 18.01.14 18.01.14 18.01.14
_ Max-Zeit 23:06 17:26 07:26 09:38 00:00 14:00 23:55 - 11:00 00:00 13:07 17:26 17:26 21:12
Maximum _ 24,6 C 7,2 C 62 % 100 % 1020,9 hPa 1,0 l/m 19,3 km/h
O (3 Bft)
- 0,076 mm 0,0 UV-I 332 W/m 7,2 C 7,2 C 33,8 km/h
O (5 Bft)
Durchschnitt _ 23,6 C 1,5 C 59 % 96 % 1008,8 hPa #8,4 l/m 3,3 km/h (1 Bft) O #1,367 mm 0,0 UV-I 59 W/m 0,9 C 1,1 C 5,8 km/h (2 Bft)